COSMOS 1275 DEB, 12739

Orbit data source: Space-Track

COSMOS 1275 DEB, 12739 is space debris in LEO originally from a launch on Thu, 04 Jun 1981 UTC launched from the Plesetsk Missile And Space Complex (PKMTR). Debris objects in space refer to the collection of defunct objects orbiting the Earth. Examples of debris include non-operational satellites, rocket bodies, and fragments generated from explosions, collisions, or faulty payload assembly.

Loading next visibility...
Identifier
12739, 1981-053CG
Orbit
LEO
Country
Flag of CISCIS
Related business
Manufacturer
Unknown
Mission
Spacecraft
Bus & Motor
Unknown
Mass
Unknown
Launch date (UTC)
1981-06-04 (45 years ago)
Launch vehicle
Unknown
Launch site
Plesetsk Missile And Space Complex (PKMTR)
Object type
Payload
Rocket body
Debris
Shape & HBR
Unknown shape, 0.1 m
Radar Cross Section
Small (<0.1 m²)

Expand to show TLE details & history
Last TLE update: 14 hours ago

TLE from 14 hours ago
0 COSMOS 1275 DEB
1 12739U 81053CG  26035.38399037  .00006754  00000-0  19312-2 0  9997
2 12739  82.9332  23.9020 0004593 192.6690 167.4390 14.44981473286372
Epoch: 2026-02-04T09:12Z
TLE epoch observation values (Epoch: 2026-02-04T09:12:56.767Z)
Latitude
-0.00009°
Longitude
111.11411°
Altitude
748.277 km
Speed
7.479 km/s
True Right ascension
01h 35m 36s
True Declination
0° 00' 00"
Sunlit
Object was in daylight at epoch
Visualization orbit readout
Latitude
Unknown
Longitude
Unknown
Altitude
Unknown
Speed
Unknown
Apparent Right ascension
Unknown
Apparent Declination
Unknown
Sunlit
N/A
Visualization observer readout
Local Sidereal Time
01:42:26
Azimuth
Unknown
Elevation
Unknown
Doppler factor
Unknown
Orbital elements
Apogee altitude
742.409 km
Perigee altitude
735.871 km
Semi-major axis
7,117.277 km
Eccentricity
0.00046
Inclination
82.9332°
RAAN
23.902°
Arg. of periapsis
192.669°
True anomaly
167.45044°
Mean anomaly
167.439°
Eccentric anomaly
167.44472°
Mean motion
3.6147 °/min
Orbital period
99.59 mins
BSTAR
0.0019312
Loading maneuver chart data...
Computing Atmospheric mass density...

Documentation

Showing up to 5 results
|